Погода в Большой Раковке

Россия / Самарская область     53°41′37″N   50°37′17″E
темп.,
°C
ветер,
м/с
пор.,
м/с
влажн.,
%
обл.,
%
осадки,
мм/ч
давл.,
гПа
погр.,
м
9 мая, вс
вс901:00+13юв336225 0.0 101423
04:00+12юв3365100 0.0 101431
07:00+14юв26645 0.0 1014189
10:00+19ю58515 0.0 1014809
13:00+18ююз265930 0.0 1014244
16:00+23ю563969 0.0 10132269
19:00+18ю115766 0.0 101411
22:00+17вюв345581 0.0 101464
10 мая, пн
пн1001:00+16юв2362100 0.0 101548
04:00+14вюв2269100 0.0 101614
07:00+16вюв3865100 0.0 1017232
10:00+20юв465097 0.0 1018504
13:00+24юв4539100 0.0 10191671
16:00+25вюв3337100 0.0 10192265
19:00+21вюв335496 0.0 102045
22:00+18св3363100 0.0 102149
11 мая, вт
вт1101:00+15ссв4108699 0.0 1023221
04:00+14св3688100 0.0 1024110
07:00+16всв1272100 0.0 1025119
10:00+19всв3357100 0.0 1026571
13:00+23всв344643 0.0 10261414
16:00+24всв56415 0.0 10262123
19:00+21всв47579 0.0 1026169
22:00+17всв346420 0.0 102751
12 мая, ср
ср1201:00+15всв357114 0.0 102770
04:00+14всв49855 0.0 1028161
07:00+16в47784 0.0 1028234
10:00+22вюв465050 0.0 1028837
13:00+24вюв4539100 0.0 10282041
16:00+25вюв453896 0.0 10272242
19:00+22в235477 0.0 102750
22:00+19всв4106425 0.0 1027249
13 мая, чт
чт1301:00+15в41260100 0.0 1027244
04:00+14в4106513 0.0 1027184
07:00+16вюв38655 0.0 1027232
10:00+22юв45485 0.0 1027788
13:00+25юв56365 0.0 10261890
16:00+26ююв463366 0.0 10262120
19:00+23ююв2250100 0.0 102618
22:00+19вюв2254100 0.0 102611